Weather in Mogdy

Russia / Khabarovsk Krai     50°30′54″N   133°52′11″E
temp.,
°C
wind,
m/s
gust,
m/s
humid.,
%
clouds,
%
prec.,
mm/h
press.,
hPa
HPBL,
m
27 february, sat
sat2701:00−23ssw119412 0.0 103320
04:00−22sw12886 0.0 103320
07:00−21s118242 0.0 103220
10:00−14ssw127671 0.0 103199
13:00−8s4760100 0.0 1027775
16:00−9sse4863100 0.0 1023604
19:00−12sse2572100 0.0 1020221
22:00−13s31088100 0.3 1018467
28 february, sun
sun2801:00−13s3891100 0.8 1016348
04:00−13ssw2793100 1.3 1014302
07:00−15ssw2494100 0.2 101690
10:00−13sw3590100 0.4 1016563
13:00−14wnw477386 0.1 10181031
16:00−15wnw367470 0.1 10191137
19:00−21nw238893 0.0 102367
22:00−25sw239568 0.1 102663
1 march, mon
mon101:00−27sw229658 0.0 102737
04:00−29ssw119777 0.0 102921
07:00−30ssw129658 0.0 103124
10:00−25wsw138670 0.0 1031436
13:00−21wnw496430 0.0 10301327
16:00−21wnw387638 0.0 10291438
19:00−24wnw1290100 0.1 103132
22:00−28ssw129493 0.1 103330
2 march, tue
tue201:00−30s129753 0.0 103332
04:00−31ssw119544 0.0 103323
07:00−32s12910 0.0 103421
10:00−25w12830 0.0 1034328
13:00−21wnw246833 0.0 10311072
16:00−20wnw256748 0.0 10301172
19:00−26se118242 0.0 103020
22:00−27sse128421 0.0 103219
3 march, wed
wed301:00−27sse11850 0.0 103020
04:00−24sse119146 0.0 102922
07:00−23s1196100 0.1 102740
10:00−18s2688100 0.2 1025448
13:00−15s51082100 0.2 1021772
16:00−15s51182100 0.4 1018743
19:00−17s31087100 0.1 1016427
22:00−18s3890100 0.2 1016297